Погода в Ижевске

Погода в Ижевске : погода сейчас, прогноз погоды и архив. Всё, что Вы хотите узнать о погоде в Ижевске!

Хотите узнать прогноз погоды в Ижевске? Тогда Вам сюда: Погода в Ижевске

Поиск расширенной информации на нашем сайте:

Другие новости

Новости СМИ2

Главная страница сайта

Новости сайта

03.07.2017

Напоминаем, что на нашем специализированном сайте Метеоцентр.Азия вы можете получить высокодетализированные автоматические прогнозы погоды по пунктам России, СНГ и мира в авиационном формате (включающие направление и скорость ветра, видимость, явления погоды, количество и форму облачности, нижнюю и верхнюю границу облачности).

Рекомендуем: биографии мастеров спорта, ашихара.

Погода в Ижевске - сегодня

Время (UTC), дата Ветер
(°,м/с) 
Видим.   Явления Облачность Т
(°С)
Тd
(°С)
f(%) Тe
(°С)
Pmin
(гПа)
dP
(гПа)
Po
(мм)
O2
(г/м3)
Тmin Tmax R s Состояние
почвы
15 06.08.18 280 (З) 3-5{09}  10 км    4/3 1000 м верхняя 
[Cu med, cong|Ci fib]
+26 +13.6 46 +33  1001.8  0.6  738  269    +26.7  0.6     
03 07.08.18 тихо () -1{02}  10 км    3/0 верхняя 
[Ci fib]
+15.5 +15 97 +25  1004.9  0.5  740  279  +14.5      влажная 
15 07.08.18 240 (ЮЗ) 2-4{07}  10 км  в посл. час ливневой дождь  10/6 1000 м кучево-дожд., средняя, верхняя 
[Cb cap|Ac trans|Cc]
+21.9 +13.8 60 +29  1003.5  -0.3  739  273    +26.6  0.0     
03 08.08.18 тихо () -1{02}  10 км    10/0 средняя 
[Ac As]
+13.9 +13.3 96 +20  1006  0.6  740  281  +13.5        сухая 
15 08.08.18 тихо () -1{04}  10 км    10/4 1000 м средняя 
[Sc diur, vesp|Ac As]
+17.6 +13.1 75 +23  1006.8  0.1  741  278    +19.5     
03 09.08.18 330 (СЗ) 3-6{08}  10 км  слаб. ливневой дождь  8/4 600 м кучево-дожд., средняя 
[Cb calv|Ac trans]
+11 +10.3 95 +13  1010.6  1.1  743  286  +10.9      влажная 
15 09.08.18 020 (С) 4-6{09}  10 км    9/3 1000 м средняя 
[Sc|Ac trans]
+14.5 +6.4 58 +14  1016.5  1.5  748  285    +17.1  0.0     
03 10.08.18 320 (СЗ) 2-3{04}  10 км    6/0 средняя, верхняя 
[Ac trans|Cc]
+11.3 +9.3 87 +12  1021.1  0.9  751  289  +10.7        влажная 
15 10.08.18 270 (З) 4-5{08}  10 км    9/0 средняя 
[Ac trans]
+20.2 +9.8 51 +21  1016.7  -1.2  748  279    +23.4       
03 11.08.18 290 (З) 2-3{04}  10 км    9/0 средняя 
[Ac trans]
+17.8 +15.8 88 +29  1012.9  746  279  +16    0.7    влажная 
15 11.08.18 310 (СЗ) 6-9{12}  10 км    4/1 1000 м верхняя 
[Cu med, cong|Ci fib]
+25.5 +13 46 +31  1011.8  745  272    +26.6       
03 12.08.18 тихо () -2{03}  10 км    6/0 средняя, верхняя 
[Ac trans|Ci fib]
+17.5 +16.4 93 +29  1012.4  0.3  745  279  +16        сухая 
15 12.08.18 280 (З) 3-4{07}  10 км    3/0 средняя 
[Ac trans]
+25.6 +12.9 45 +31  1010.9  -0.8  744  272    +27.6       
03 13.08.18 тихо ()   10 км    6/0 средняя 
[Ac trans]
+17.4 +13.5 78 +24  1009.9  -0.5  743  279  +15.9        сухая 
15 13.08.18 220 (ЮЗ) 3-5{07}  10 км    8/0 средняя, верхняя 
[Ac trans|Ci fib]
+26.5 +13.4 44 +33  1005.9  -1.1  741  269    +28.5       
03 14.08.18 тихо () -1{02}  10 км    6/3 1500 м кучево-дожд., средняя 
[Cb calv|Ac trans]
+14.6 +13.3 92 +21  1007.6  741  281  +14.1        сухая 
15 14.08.18 260 (З) 1-2{05}  10 км    9/3 1000 м средняя 
[Sc|Ac trans]
+18.5 +12 66 +24  1009.4  0.1  743  278    +21  0.0     
21 14.08.18 290 (З) 1-2{03}  10 км    ясно 
+11.8 +11.2 96 +16  1012  0.5  745  285           
03 15.08.18 270 (З) 1-2{04}  10 км    ясно 
+11.1 +10.5 96 +14  1014.1  746  287  +10.1      влажная 
06 15.08.18 300 (СЗ) 2-3{04}  10 км    ясно 
+17.3 +12.1 71 +22  1014.6  0.9  747  281           
15 15.08.18 290 (З) 2-4{06}  10 км    9/1 1000 м средняя, верхняя 
[Sc diur, vesp|Ac trans|Ci fib]
+20.3 +11 55 +23  1015.1  -0.2  747  278    +22       
03 16.08.18 180 (Ю) 3-5{06}  10 км  слаб. ливневой дождь  10/4 1000 м кучево-дожд., средняя 
[Cb calv|Ac As]
+15.5 +10.9 74 +18  1013.8  -0.9  746  282  +11.6    0.0    влажная 
15 16.08.18 290 (З) 6-9{11}  10 км  гроза, ливневой дождь  9/6 1000 м кучево-дожд., средняя 
[Cb calv|Ac trans]
+21.7 +15.1 66 +31  1009.5  0.3  743  274    +24.2     
03 17.08.18 300 (СЗ) 2-3{05}  10 км    6/0 средняя, верхняя 
[Ac trans|Ci fib]
+12.2 +10.6 90 +15  1016.9  1.8  748  287  +11.9      влажная 
15 17.08.18 310 (СЗ) 3-5{11}  10 км  слаб. ливневой дождь  9/6 1000 м кучево-дожд., средняя 
[Cb cap|Ac trans]
+13.5 +10.6 83 +16  1019.6  0.7  750  286    +19.3  0.1     
Время (UTC), дата Ветер
(°,м/с) 
Видим.   Явления Облачность Т
(°С)
Тd
(°С)
f(%) Тe
(°С)
Pmin
(гПа)
dP
(гПа)
Po
(мм)
O2
(г/м3)
Тmin Tmax R s Состояние
почвы

Для получения пояснительной информации подведите курсор к названию столбца.

ПОГОДА в Ижевске - архив

Всё, что Вы хотите узнать о погоде в Ижевске - удобно и подробно!

Выберите нужную дату (начиная с 1 января 2015* года) и нажмите кнопку "Найти".
Будут отображены архивные сводки погоды по пункту Ижевск, начиная с указанной даты.


Отображать данные в формате CSV (для использования в таблицах Excel)


Внимание! Наш архив погоды предназначен исключительно для личного некоммерческого использования в познавательных целях. Если Вам необходимы официальные справки о состоянии погоды (для производственных, юридических, коммерческих и т.п. целей), обращайтесь в органы Росгидромета.

*Примечание: данная дата относится к архиву по метеостанциям СССР (Россия, СНГ, Балтия).
Архив по метеостанциям Зарубежной Европы и Азии (кроме Китая) хранится 10 дней, по другим регионам земного шара (Китай, Африка, Америка, Австралия, Океания) - 1 день.

Ижевск - район местоположения метеостанции


Название, широта, долгота, высота метеостанции:
Ижевск 56.8°ш. 53.4°д. 159 м над ур. моря [Российская Федерация]

Дополнительная информация

В oтличие oт бoльшинства пoгoдных сайтoв мы публикуем пoдрoбную метеoинфoрмацию в детальнoм прoфессиoнальнoм фoрмате.

Характеристики температуры и влажнoсти вoздуха измеряются на высoте 2 м в тени вдали oт зданий и деревьев.
Скoрoсть ветра измеряется на высoте 10 м (на урoвне рoста челoвека скoрoсть ветра ниже в 1.5-2 раза). Если метеoстанция нахoдится в гoрoде или в лесу, тo скoрoсть ветра занижена на 2-4 м/с пo сравнению с oткрытым местoм. Скoрoсть ветра над акватoриями крупных рек и oзёр, а также на вершинах хoлмoв на 2-5 м/с выше, чем в oбычных услoвиях.
Атмoсфернoе давление в разных тoчках местнoсти мoжет значительнo oтличаться oт давления на метеoстанции, в зависимoсти oт услoвий рельефа (при пoдъёме на 10 м давление пoнижается примернo на 1 мм рт.ст.).